Regional Weather Roundup
Issued by NWS

Home | Current Version | Previous Version | Graphics & Text | Print | Product List | Glossary Off
Versions: 1 2 3 4 5 6 7 8 9 10 11 12 13 14 15 16 17 18 19 20 21 22 23 24 25 26 27 28 29 30 31 32 33 34 35 36 37 38 39 40 41 42 43 44 45 46 47 48 49 50

000
ASUS43 KMKX 070321
RWRWI

WISCONSIN REGIONAL WEATHER ROUNDUP
NATIONAL WEATHER SERVICE MILWAUKEE/SULLIVAN WI
1000 PM CDT WED MAY 06 2015

NOTE: "FAIR" INDICATES FEW OR NO CLOUDS BELOW 12,000 FEET WITH NO
SIGNIFICANT WEATHER AND/OR OBSTRUCTIONS TO VISIBILITY.

WIZ001-002-006>008-014>016-023>028-070400-
NORTHWEST WISCONSIN

CITY           SKY/WX    TMP DP  RH WIND       PRES   REMARKS
SUPERIOR ARPT  CLOUDY    42  35  76 NE10      29.95S
ASHLAND        CLOUDY    48  43  82 CALM      29.97S
HAYWARD        LGT RAIN  65  60  84 S7        29.96R
SIREN          CLOUDY    67  58  70 SE8       29.91R
CUMBERLAND     CLOUDY    61  59  94 SE12      29.94S
RICE LAKE      CLOUDY    62  59  90 E8        29.96S
CHETEK         CLOUDY    61  60  96 E7        29.95S
LADYSMITH      HVY RAIN  62  59  91 S3        30.01R
EAU CLAIRE     LGT RAIN  64  60  87 SE9       29.95S
MENOMONIE      LGT RAIN  63  61  94 E6        29.94S
NEW RICHMOND   CLOUDY    64  59  83 SE12      29.91R
OSCEOLA        CLOUDY    66  60  80 SE14G20   29.92S
$$

WIZ003>005-009-010-017-018-070400-
NORTH CENTRAL WISCONSIN

CITY           SKY/WX    TMP DP  RH WIND       PRES   REMARKS
MANITOWISH WTR MOCLDY    63  57  82 SE7       30.02S
ARBOR VITAE    MOCLDY    64  56  78 SE10      30.03S
WOODRUFF       MOCLDY    64  56  78 SE10      30.03S
RHINELANDER    MOCLDY    62  55  77 SE8       30.06R
EAGLE RIVER    MOCLDY    62  52  71 SE7       30.05S
LAND O LAKES   PTCLDY    63  54  73 SE8       30.06S
PHILLIPS       CLOUDY    64  58  81 SE9       30.00R
TOMAHAWK       CLOUDY    61  56  85 SE6       30.04S
MEDFORD        CLOUDY    64  57  78 SE8       30.02R
MERRILL        CLOUDY   N/A N/A N/A SE10      30.05R
$$

WIZ029-030-035-036-043>047-070400-
CENTRAL WISCONSIN

CITY           SKY/WX    TMP DP  RH WIND       PRES   REMARKS
WAUSAU         MOCLDY    62  57  83 E9        30.03R
MOSINEE        CLEAR     63  57  82 E8        30.04S
MARSHFIELD     MOCLDY    65  58  78 SE9       30.01R
STEVENS POINT  MOCLDY    61  56  82 E9        30.04R
WAUPACA        PTCLDY    63  57  81 E5        30.05S
WAUTOMA        PTCLDY    64  60  87 E6        30.04R
WISC RAPIDS    PTCLDY    64  57  78 SE10      30.03R
CAMP DOUGLAS   MOCLDY    68  68 100 SE6       30.00R
$$

WIZ011>013-019>022-031-037>040-048>050-070400-
NORTHEAST WISCONSIN

CITY           SKY/WX    TMP DP  RH WIND       PRES   REMARKS
ANTIGO         MOCLDY    58  55  89 SE14      30.07R
SHAWANO        PTCLDY    59  55  85 E5        30.08R
OCONTO         MOCLDY    53  52  97 E5        30.09S
STURGEON BAY   MOCLDY    48  36  61 E7        30.12S
GREEN BAY      PTCLDY    56  51  84 E6        30.08S
MANITOWOC        N/A    N/A N/A N/A MISG        N/A
APPLETON       PTCLDY    61  54  77 VRB6      30.07R
CLINTONVILLE   PTCLDY    59  55  88 E5        30.06S
OSHKOSH        PTCLDY    60  55  83 SE8       30.05S HAZE
$$

WIZ032>034-041-042-053>061-070400-
SOUTHWEST WISCONSIN

CITY           SKY/WX    TMP DP  RH WIND       PRES   REMARKS
LA CROSSE      CLOUDY    67  60  78 S7        29.96R
SPARTA         MOCLDY    63  61  93 CALM      30.01R
VIROQUA        CLOUDY    66  58  76 S8        30.01R
BOSCOBEL       MOCLDY    64  58  80 CALM      29.99R
PRAIRIE DU CHI MOCLDY    67  56  68 SE5       29.98R
PLATTEVILLE    CLOUDY    66  61  83 E5        30.01R
$$

WIZ056-057-062-063-064-067-068-070400-
SOUTH CENTRAL WISCONSIN

CITY           SKY/WX    TMP DP  RH WIND       PRES   REMARKS
REEDSBURG      PTCLDY    68  62  80 SE6       30.02R
BARABOO/DELLS  PTCLDY    64  58  80 S7        30.03R
LONE ROCK      PTCLDY    65  59  81 NE5       30.00S
MINERAL POINT  MOCLDY    66  59  77 E5        30.02R
MADISON        PTCLDY    65  58  78 SE10      30.02R
MIDDLETON      PTCLDY    69  60  73 S6        30.04R
WATERTOWN      PTCLDY    59  58  96 E6        30.04S
MONROE         CLEAR     68  55  64 NE5       30.03S
JANESVILLE     PTCLDY    63  59  88 SE9       30.04R FOG
$$

WIZ051-052-058>065-066-070>072-070400-
SOUTHEAST WISCONSIN

CITY           SKY/WX    TMP DP  RH WIND       PRES   REMARKS
MILWAUKEE      FOG       47  45  93 NE6       30.10S VSB 1/8
WAUKESHA       PTCLDY    52  50  93 E5        30.09S FOG
MILWAUKEE/TIMM FOG       46  45  93 E3        30.09S VSB 1/2
RACINE         FOG       46  45  96 NE5       30.10F VSB 1/4
BURLINGTON     PTCLDY    54  53  97 CALM      30.08R FOG
KENOSHA        FOG       49  49 100 E7        30.09S VSB 1/4
FOND DU LAC    PTCLDY    59  54  83 SE14      30.05S HAZE
SHEBOYGAN      FOG       45  44  97 E3        30.09F VSB 3/4
WEST BEND      FOG       52  50  93 E5        30.08S VSB 1/2
JUNEAU         PTCLDY    59  55  86 E9        30.06S FOG
$$

LSZ147-162-070400-
LAKE SUPERIOR

STATION/POSITION TIME  TEMP    WIND        PRES    WAVE
                       AIR SEA DIR/SP/G            HT/PER
                 (UTC) (F)     (DEG/KT/KT) (MB)    (FT/S)
W MID LAKE BUOY  0250   40 35   60/  8/  8 1015.9R   1/ 3
DEVILS ISLAND    0300   41      90/ 12/ 13 1015.2F
PORT WING        0200   40      40/ 13/ 15 1014.2
SAXON HARBOR     0200   46        CALM     1014.2F
$$

LMZ867-665-643>646-070400-
LAKE MICHIGAN

STATION/POSITION TIME  TEMP    WIND        PRES    WAVE
                       AIR SEA DIR/SP/G            HT/PER
                 (UTC) (F)     (DEG/KT/KT) (MB)    (FT/S)
CHAMBERS ISLAND  0200   51      70/  1/  2 1019.6R
NORTHPORT PIER   0200   47     140/  2/  3 1019.6R
SISTER BAY       0232   49        CALM       N/A
KEWAUNEE LAKESHO 0300   46      CALM  /  1 1018.4F
SHEBOYGAN LAKESH 0300   44      40/  3/  3 1019.8F
PORT WASHINGTON  0240   44      50/  5/  7 1019.6F
ATWATER BUOY     0300   42      10/  6/  6 1020.2F
MILWAUKEE LAKESH 0300   44      40/  7/  7   N/A
KENOSHA   LAKESH 0300   45      30/  5/  6 1019.0S
$$

TC  - TEMPERATURE IN CELSIUS
VSB - VISIBILITY IN STATUTE MILES
WCI - WIND CHILL INDEX
HX  - HEAT INDEX




USA.gov is the U.S. government's official web portal to all federal, state and local government web resources and services.